Weather History for Burbank, CA

Change the Weather History Date:

Wednesday, August 20, 2014

  Actual Average Record
Temperature  
Mean Temperature 75 °F 75 °F  
Max Temperature 83 °F 88 °F 102 °F (1969)
Min Temperature 66 °F 62 °F 53 °F (1947)
Degree Days  
Heating Degree Days 0 0  
Month to date heating degree days 0 0  
Since 1 June heating degree days 0 13  
Since 1 July heating degree days 0 0  
Cooling Degree Days 10 10  
Month to date cooling degree days 236 200  
Year to date cooling degree days 1167 764  
Since 1 June cooling degree days 805 640  
Growing Degree Days 24 (Base 50)    
Moisture  
Dew Point 57 °F    
Average Humidity 56    
Maximum Humidity 73    
Minimum Humidity 39    
Precipitation  
Precipitation 0.00 in 0.01 in 0.01 in (1983)
Month to date precipitation 0.04 0.05  
Year to date precipitation 4.95 12.62  
Since 1 July precipitation 0.04 0.07  
Sea Level Pressure  
Sea Level Pressure 29.87 in    
Wind  
Wind Speed 6 mph (SSE)    
Max Wind Speed 15 mph    
Max Gust Speed 24 mph    
Visibility 10 miles    
Events      
T = Trace of Precipitation, MM = Missing Value Source: NWS Daily Summary

Daily Weather History Graph

Daily Weather History Graph

Search for Another Location

Airport:

Trip Planner

Search our weather history database for the weather conditions in past years. The results will help you decide how hot, cold, wet, or windy it might be!

Date:

Astronomy

Aug. 20, 2014 Rise Set
Actual Time 6:18 AM PDT 7:34 PM PDT
Civil Twilight 5:52 AM PDT 8:00 PM PDT
Nautical Twilight 5:20 AM PDT 8:31 PM PDT
Astronomical Twilight 4:48 AM PDT 9:04 PM PDT
Moon 2:06 AM PDT 4:18 PM PDT
Length of Visible Light 14h 08m
Length of Day
13h 16m
Waning Crescent, 20% of the Moon is Illuminated
Aug 20
Waning Crescent
Aug 25
New
Sep 2
First Quarter
Sep 8
Full
Sep 15
Last Quarter

Hourly Weather History & Observations

Time (PDT) Temp. Heat Index Dew Point Humidity Pressure Visibility Wind Dir Wind Speed Gust Speed Precip Events Conditions
12:53 AM 68.0 °F - 59.0 °F 73% 29.86 in 10.0 mi South 5.8 mph - N/A   Overcast
1:53 AM 68.0 °F - 59.0 °F 73% 29.84 in 10.0 mi SE 8.1 mph - N/A   Overcast
2:53 AM 68.0 °F - 59.0 °F 73% 29.85 in 10.0 mi South 5.8 mph - N/A   Overcast
3:53 AM 68.0 °F - 57.9 °F 70% 29.86 in 10.0 mi SSE 6.9 mph - N/A   Overcast
4:53 AM 66.9 °F - 57.9 °F 73% 29.86 in 10.0 mi SE 6.9 mph - N/A   Mostly Cloudy
5:53 AM 66.9 °F - 57.9 °F 73% 29.87 in 10.0 mi SSE 5.8 mph - N/A   Overcast
6:53 AM 66.0 °F - 57.9 °F 75% 29.89 in 10.0 mi SE 5.8 mph - N/A   Overcast
7:53 AM 66.9 °F - 57.9 °F 73% 29.89 in 10.0 mi Variable 3.5 mph - N/A   Overcast
8:53 AM 68.0 °F - 57.9 °F 70% 29.91 in 10.0 mi Calm Calm - N/A   Overcast
9:53 AM 71.1 °F - 57.0 °F 61% 29.92 in 10.0 mi Variable 5.8 mph - N/A   Mostly Cloudy
10:53 AM 73.9 °F - 55.9 °F 53% 29.91 in 10.0 mi South 8.1 mph - N/A   Clear
11:53 AM 78.1 °F - 54.0 °F 43% 29.90 in 10.0 mi SE 8.1 mph 16.1 mph N/A   Clear
12:53 PM 80.1 °F 79.9 °F 53.1 °F 39% 29.88 in 10.0 mi South 8.1 mph - N/A   Clear
1:53 PM 82.0 °F 81.4 °F 55.0 °F 39% 29.86 in 10.0 mi South 12.7 mph - N/A   Clear
2:53 PM 80.1 °F 80.2 °F 55.9 °F 43% 29.86 in 10.0 mi South 5.8 mph 16.1 mph N/A   Clear
3:53 PM 80.1 °F 80.2 °F 55.9 °F 43% 29.85 in 10.0 mi South 9.2 mph - N/A   Clear
4:53 PM 80.1 °F 80.0 °F 54.0 °F 40% 29.83 in 10.0 mi SSW 8.1 mph - N/A   Clear
5:53 PM 79.0 °F - 55.9 °F 45% 29.83 in 10.0 mi South 10.4 mph - N/A   Clear
6:53 PM 75.9 °F - 57.0 °F 52% 29.84 in 10.0 mi South 9.2 mph - N/A   Clear
7:53 PM 72.0 °F - 57.9 °F 61% 29.85 in 10.0 mi South 8.1 mph - N/A   Clear
8:53 PM 70.0 °F - 57.9 °F 65% 29.87 in 10.0 mi South 6.9 mph - N/A   Clear
9:53 PM 70.0 °F - 57.0 °F 63% 29.88 in 10.0 mi SSW 3.5 mph - N/A   Clear
10:53 PM 69.1 °F - 57.9 °F 68% 29.89 in 10.0 mi SSE 3.5 mph - N/A   Clear
11:53 PM 69.1 °F - 57.9 °F 68% 29.89 in 10.0 mi Calm Calm - N/A   Clear